STARLINK-11113, 59947

Orbit data source: Space-Track

STARLINK-11113, 59947 is a payload satellite owned by SpaceX/Seattle (US) in LEO that was launched on Wed, 05 Jun 2024 UTC via an FALCON 9 launch vehicle from the Air Force Eastern Test Range (AFETR). Payload-class satellites include a variety of spacecraft equipped with specific instruments for various scientific and technological missions. These include communications satellites like Starlink; space stations such as the ISS; scientific satellites like the Hubble; Earth observation satellites from companies like Planet Labs, Umbra, and HawkEye 360; GPS; miniature CubeSats for education and research; and military/defense satellites.

Loading next visibility...
Identifier
59947, 2024-107C
Orbit
LEO
Last TLE update
10 hours ago
Origin
Manufacturer
SpaceX/Seattle
Mission
Operational spacecraft
Bus & Motor
STARLINK V2M, Unknown motor
Mass
730 kg wet, ~700 kg dry
Launch date (UTC)
2024-06-05 (11 months ago)
Launch vehicle
FALCON 9
Launch site
Air Force Eastern Test Range (AFETR)
Object type
Payload
Rocket body
Debris
Shape & HBR
Unknown
Radar Cross Section
Large (>1 m²)

Expand to show TLE details & history

TLE from 10 hours ago
0 STARLINK-11113
1 59947U 24107C   25128.98528787  .00000784  00000-0  11322-4 0  9992
2 59947  53.1585 312.9702 0000598 195.6670 164.4330 15.69711801 54293
Epoch: 2025-05-08T23:38Z
Definitive object data (Epoch: 2025-05-08T23:38:48.871Z)
Latitude
-0.00001°
Longitude
91.21864°
Altitude
361.025 km
Speed
7.694 km/s
True Right ascension
20h 51m 52s
True Declination
0° 00' 00"
Sunlit
Object was in daylight at TLE epoch
Visualization TLE readout
Latitude
25.91544°
Longitude
-112.01701°
Altitude
360.564 km
Speed
7.697 km/s
Apparent Right ascension
06h 32m 53s
Apparent Declination
-6° 06' 05"
Sunlit
Object is in daylight
Visualization observer readout
Local Sidereal Time
17:35:39
Azimuth
335.402° NNW
Elevation
-53.822°
Doppler factor
1
Orbital elements
Apogee altitude
360.385 km
Perigee altitude
359.58 km
Semi-major axis
6,738.12 km
Eccentricity
0.0000598
Inclination
53.1585°
RAAN
312.9702°
Arg. of periapsis
195.667°
True anomaly
164.43484°
Mean anomaly
164.433°
Eccentric anomaly
164.43392°
Mean motion
3.92406 °/min
BSTAR
0.000011322
Orbital period
91.74 mins
Loading maneuver chart data...
Loading SW <> Apogee altitude chart data...
Loading historical data...
Loading historical data...
Loading historical data...
Loading historical data...
Loading historical data...
Loading historical data...
Loading historical data...

STARLINK-11113 Visibility forecast

Observer location: undefined°, undefined°

Span
Click to sort rows by Start time (UTC) header in descending order
Start Az.
Max El. time (UTC)
Max El. Az.
Max El.
End time (UTC)
End Az.
5 mins2025-05-09 15:07:19.730Z235.08° WSW2025-05-09 15:09:19.730Z299.904° NW44.213°2025-05-09 15:12:19.730Z47.519° ENE
4 mins2025-05-09 21:32:19.730Z320.999° NNW2025-05-09 21:34:19.730Z63.609° ENE40.833°2025-05-09 21:36:19.730Z117.773° SE
|